[[{"header":{"parameterUnit":"m.s-1","parameterCategory":1,"la1":30.2992,"la2":30.254,"lo1":-89.0895,"lo2":-89.0443,"dy":0.0025,"dx":0.0025,"nx":19,"ny":19,"refTime":"2026-04-29T03:00:00:Z","depth":0,"parameterNumber":2,"parameterNumberName":"U-component_of_WINDS"},"data":[0,0,0,2.6097,2.61,2.6253,2.6254,2.6443,2.6445,0,0,0,0,0,0,0,0,0,0,0,2.6048,2.6049,2.6097,2.6101,2.6253,2.6254,2.6443,2.6445,0,0,0,0,0,0,0,0,0,0,0,2.6047,2.6049,2.605,2.6101,2.6253,2.6254,2.6442,2.6329,0,0,0,0,0,0,0,0,0,0,2.6182,2.6133,2.6048,2.605,2.6102,2.6253,2.6254,2.6324,2.6337,2.6371,0,2.6401,0,2.6426,2.6457,2.6458,0,0,0,2.6104,2.6122,2.6167,2.605,2.6103,2.6253,2.6185,2.6331,2.6345,2.6388,2.6404,2.6411,2.6429,2.6458,2.6459,2.6646,2.6647,0,0,2.6095,2.6074,2.6157,2.6176,2.6152,2.618,2.619,2.634,2.6356,2.6404,2.6415,2.6432,2.6459,2.6461,2.6646,2.6647,0,0,0,2.6069,2.6067,2.6109,2.6168,2.6196,2.6185,2.6196,2.6349,2.6364,2.6417,2.6434,2.646,2.6463,2.6645,2.6646,2.6659,0,0,0,2.6064,2.6052,2.6105,2.6093,2.6193,2.6274,2.6202,2.6354,2.6372,2.6433,2.6461,2.6465,2.6644,2.6646,2.6657,2.6669,0,0,0,2.6039,2.6049,2.607,2.6091,2.6156,2.6273,2.6297,2.6358,2.6382,2.6458,2.6465,2.6644,2.6645,2.6655,2.6666,2.671,0,0,0,2.6007,2.6081,2.607,2.6159,2.6155,2.628,2.6296,2.639,2.6457,2.6461,2.6644,2.6646,2.6655,2.6664,2.6708,2.6741,2.6754,0,0,2.6088,2.609,2.6144,2.6139,2.6259,2.6258,2.6381,2.6464,2.6492,2.6593,2.6598,2.6658,2.6665,2.6709,2.6835,2.6845,0,0,0,2.6162,2.6201,2.6237,2.6299,2.6364,2.6419,2.6485,2.6516,2.6603,2.654,2.6687,2.6693,2.6719,2.6736,2.6745,2.6768,2.6653,2.6653,2.6653,2.6245,2.6276,2.6367,2.6415,2.6475,2.6542,2.6593,2.6646,2.6661,2.6695,2.6724,2.6797,2.6816,2.6823,2.6847,2.6747,2.6747,2.6747,2.6747,2.6365,2.6423,2.644,2.6533,2.6565,2.6645,2.6712,2.6719,2.6798,2.6778,2.6803,2.6776,2.6832,2.6855,2.6748,2.6748,2.6748,2.6748,2.6748,2.642,2.6453,2.6489,2.6581,2.6648,2.6696,2.6769,2.6797,2.6824,2.6848,2.6881,2.6881,2.6883,2.6863,2.6863,2.6863,2.6863,2.6863,2.6864,2.6463,2.6503,2.6561,2.6635,2.6677,2.6737,2.6805,2.6847,2.6902,2.6916,2.6916,2.6926,2.6833,2.6807,2.6868,2.6867,2.6866,2.6866,2.6866,2.657,2.655,2.664,2.6683,2.6771,2.6835,2.6869,2.6954,2.6993,2.7028,2.7034,2.6961,2.6965,2.6958,2.6937,2.7028,2.7028,2.7028,2.7028,2.6615,2.662,2.6718,2.6783,2.6852,2.6891,2.6991,2.7044,2.7096,2.7122,2.7113,2.7089,2.7081,2.709,2.708,2.7061,2.7181,2.7181,2.7181,2.6682,2.6694,2.6774,2.6823,2.6894,2.6954,2.7048,2.7123,2.7178,2.7188,2.7143,2.7136,2.7097,2.7083,2.709,2.7075,2.704,0,0]},{"header":{"parameterUnit":"m.s-1","parameterCategory":1,"la1":30.2992,"la2":30.254,"lo1":-89.0895,"lo2":-89.0443,"dy":0.0025,"dx":0.0025,"nx":19,"ny":19,"refTime":"2026-04-29T03:00:00:Z","depth":0,"parameterNumber":3,"parameterNumberName":"V-component_of_WINDS"},"data":[0,0,0,1.9777,1.9778,1.9801,1.9801,1.983,1.983,0,0,0,0,0,0,0,0,0,0,0,1.9771,1.9771,1.9777,1.9778,1.9801,1.9801,1.983,1.983,0,0,0,0,0,0,0,0,0,0,0,1.977,1.9771,1.9771,1.9778,1.9801,1.9801,1.983,1.9812,0,0,0,0,0,0,0,0,0,0,1.979,1.9784,1.9771,1.9771,1.9778,1.9801,1.9801,1.9812,1.9814,1.9819,0,1.9825,0,1.9828,1.9832,1.9832,0,0,0,1.9777,1.9783,1.9789,1.9771,1.9778,1.9801,1.9791,1.9813,1.9815,1.9822,1.9826,1.9827,1.9829,1.9832,1.9833,1.9867,1.9867,0,0,1.9776,1.9775,1.9787,1.979,1.9788,1.979,1.9791,1.9814,1.9818,1.9826,1.9827,1.9829,1.9833,1.9833,1.9867,1.9867,0,0,0,1.9773,1.9774,1.978,1.9789,1.9793,1.9791,1.9792,1.9817,1.9819,1.9828,1.9829,1.9833,1.9833,1.9866,1.9867,1.9874,0,0,0,1.9772,1.9772,1.9779,1.9778,1.9793,1.9806,1.9795,1.9817,1.982,1.9829,1.9833,1.9833,1.9866,1.9867,1.9873,1.9878,0,0,0,1.9769,1.9772,1.9775,1.9778,1.9788,1.9805,1.9809,1.9818,1.9821,1.9832,1.9833,1.9866,1.9867,1.9873,1.9877,1.9886,0,0,0,1.9765,1.9782,1.9775,1.9794,1.9788,1.981,1.9808,1.9825,1.9835,1.9833,1.9866,1.9867,1.9873,1.9876,1.9885,1.9893,1.9896,0,0,1.9786,1.9785,1.9796,1.979,1.9813,1.9806,1.983,1.9841,1.9843,1.9858,1.9859,1.9874,1.9877,1.9886,1.9915,1.9918,0,0,0,1.9802,1.981,1.9816,1.9826,1.9834,1.9842,1.9849,1.9852,1.9866,1.9851,1.9879,1.9881,1.9887,1.989,1.9893,1.9897,1.9868,1.9868,1.9868,1.983,1.9831,1.9849,1.9852,1.9861,1.9868,1.9875,1.9881,1.988,1.9887,1.9892,1.9909,1.9914,1.9915,1.9919,1.9896,1.9896,1.9896,1.9896,1.9859,1.987,1.9867,1.9883,1.9884,1.9897,1.9903,1.9901,1.9913,1.9906,1.9911,1.9903,1.9918,1.9922,1.9896,1.9896,1.9896,1.9896,1.9896,1.9878,1.9883,1.9887,1.99,1.9909,1.9912,1.9923,1.9923,1.9923,1.9927,1.9932,1.9931,1.9931,1.9929,1.9929,1.9929,1.9929,1.9929,1.993,1.9896,1.9899,1.9909,1.9917,1.9923,1.9929,1.9934,1.9939,1.9945,1.9944,1.9944,1.9941,1.9919,1.9914,1.993,1.993,1.993,1.993,1.993,1.9926,1.9918,1.9933,1.9938,1.9947,1.9955,1.9955,1.9964,1.9968,1.9973,1.9969,1.9953,1.9952,1.995,1.9945,1.9969,1.9969,1.9969,1.9969,1.9941,1.994,1.9954,1.9962,1.9969,1.9969,1.9984,1.9987,1.9989,1.9991,1.9987,1.9981,1.9979,1.9979,1.9977,1.9972,2.0003,2.0003,2.0003,1.9959,1.9958,1.9972,1.9973,1.9979,1.9984,1.9998,2.0006,2.0007,2.0004,1.9992,1.9991,1.9981,1.9978,1.9976,1.9972,1.9964,0,0]}]]